Time,TemperatureF,DewpointF,PressureIn,WindDirection,WindDirectionDegrees,WindSpeedMPH,WindSpeedGustMPH,Humidity,HourlyPrecipIn,Conditions,Clouds,dailyrainin,SoftwareType,DateUTC
2013-02-09 00:03:00,20.7,19.0,29.84,NW,314,7.0,12.0,91,0.00,,,0.00,weatherlink.com 1.10,2013-02-09 05:03:00,
2013-02-09 00:18:00,20.4,18.0,29.84,North,5,7.0,11.0,91,0.00,,,0.00,weatherlink.com 1.10,2013-02-09 05:18:00,
2013-02-09 00:33:00,20.3,18.0,29.84,NW,320,5.0,10.0,91,0.00,,,0.00,weatherlink.com 1.10,2013-02-09 05:33:00,
2013-02-09 00:48:00,20.2,18.0,29.84,NNW,346,4.0,8.0,91,0.00,,,0.00,weatherlink.com 1.10,2013-02-09 05:48:00,
2013-02-09 01:03:00,20.1,18.0,29.84,NNW,339,4.0,7.0,91,0.00,,,0.00,weatherlink.com 1.10,2013-02-09 06:03:00,
2013-02-09 01:18:00,20.0,18.0,29.85,NNW,330,5.0,10.0,91,0.00,,,0.00,weatherlink.com 1.10,2013-02-09 06:18:00,
2013-02-09 01:33:00,19.9,18.0,29.86,WNW,284,6.0,14.0,90,0.00,,,0.00,weatherlink.com 1.10,2013-02-09 06:33:00,
2013-02-09 01:48:00,19.4,17.0,29.86,NNW,342,7.0,10.0,90,0.00,,,0.00,weatherlink.com 1.10,2013-02-09 06:48:00,
2013-02-09 02:04:00,19.2,17.0,29.87,North,9,4.0,12.0,90,0.00,,,0.00,weatherlink.com 1.10,2013-02-09 07:04:00,
2013-02-09 02:19:00,19.2,17.0,29.87,NNW,343,6.0,9.0,90,0.00,,,0.00,weatherlink.com 1.10,2013-02-09 07:19:00,
2013-02-09 02:34:00,19.3,17.0,29.87,NW,314,5.0,8.0,90,0.00,,,0.00,weatherlink.com 1.10,2013-02-09 07:34:00,
2013-02-09 02:49:00,19.4,17.0,29.88,NNW,341,7.0,9.0,90,0.00,,,0.00,weatherlink.com 1.10,2013-02-09 07:49:00,
2013-02-09 03:04:00,19.5,17.0,29.88,NW,321,4.0,10.0,90,0.00,,,0.00,weatherlink.com 1.10,2013-02-09 08:04:00,
2013-02-09 03:19:00,19.7,17.0,29.88,NNW,327,4.0,8.0,90,0.00,,,0.00,weatherlink.com 1.10,2013-02-09 08:19:00,
2013-02-09 03:34:00,19.9,18.0,29.87,NW,306,4.0,10.0,90,0.00,,,0.00,weatherlink.com 1.10,2013-02-09 08:34:00,
2013-02-09 03:49:00,19.9,18.0,29.88,NNW,329,10.0,13.0,90,0.00,,,0.00,weatherlink.com 1.10,2013-02-09 08:49:00,
2013-02-09 04:05:00,19.9,18.0,29.89,NW,315,7.0,13.0,91,0.00,,,0.00,weatherlink.com 1.10,2013-02-09 09:05:00,
2013-02-09 04:19:00,20.1,18.0,29.89,WNW,289,7.0,16.0,91,0.00,,,0.00,weatherlink.com 1.10,2013-02-09 09:19:00,
2013-02-09 04:35:00,20.4,18.0,29.90,WNW,302,11.0,18.0,91,0.00,,,0.00,weatherlink.com 1.10,2013-02-09 09:35:00,
2013-02-09 04:50:00,20.5,18.0,29.91,NW,312,12.0,21.0,91,0.00,,,0.00,weatherlink.com 1.10,2013-02-09 09:50:00,
2013-02-09 05:05:00,20.3,18.0,29.92,WNW,303,16.0,25.0,91,0.00,,,0.00,weatherlink.com 1.10,2013-02-09 10:05:00,
2013-02-09 05:20:00,19.9,18.0,29.91,WNW,297,15.0,20.0,91,0.00,,,0.00,weatherlink.com 1.10,2013-02-09 10:20:00,
2013-02-09 05:35:00,19.4,17.0,29.91,NW,318,8.0,20.0,90,0.00,,,0.00,weatherlink.com 1.10,2013-02-09 10:35:00,
2013-02-09 05:50:00,18.7,16.0,29.92,NW,323,27.0,27.0,90,0.00,,,0.00,weatherlink.com 1.10,2013-02-09 10:50:00,
2013-02-09 06:05:00,18.0,16.0,29.94,NNE,33,20.0,23.0,90,0.00,,,0.00,weatherlink.com 1.10,2013-02-09 11:05:00,
2013-02-09 06:20:00,16.9,14.0,29.95,NW,316,15.0,24.0,89,0.00,,,0.00,weatherlink.com 1.10,2013-02-09 11:20:00,
2013-02-09 06:36:00,15.9,13.0,29.96,NNW,336,8.0,20.0,89,0.00,,,0.00,weatherlink.com 1.10,2013-02-09 11:36:00,
2013-02-09 07:00:00,14.4,12.0,29.98,NW,322,6.0,21.0,88,0.00,,,0.00,weatherlink.com 1.10,2013-02-09 12:00:00,
2013-02-09 07:06:00,14.0,11.0,29.98,NNW,328,14.0,22.0,88,0.00,,,0.00,weatherlink.com 1.10,2013-02-09 12:06:00,
2013-02-09 07:21:00,13.2,10.0,29.99,NW,321,12.0,20.0,88,0.00,,,0.00,weatherlink.com 1.10,2013-02-09 12:21:00,
2013-02-09 07:37:00,12.2,9.0,30.00,NNW,335,19.0,24.0,88,0.00,,,0.00,weatherlink.com 1.10,2013-02-09 12:37:00,
2013-02-09 07:52:00,11.6,9.0,30.02,NNW,338,12.0,21.0,88,0.00,,,0.00,weatherlink.com 1.10,2013-02-09 12:52:00,
2013-02-09 08:07:00,11.5,9.0,30.03,NNW,336,13.0,22.0,88,0.00,,,0.00,weatherlink.com 1.10,2013-02-09 13:07:00,
2013-02-09 08:22:00,11.3,9.0,30.04,NNW,348,14.0,24.0,88,0.00,,,0.00,weatherlink.com 1.10,2013-02-09 13:22:00,
2013-02-09 08:37:00,10.7,8.0,30.05,NNW,335,15.0,26.0,87,0.00,,,0.00,weatherlink.com 1.10,2013-02-09 13:37:00,
2013-02-09 08:52:00,10.4,7.0,30.06,NNW,327,16.0,26.0,87,0.00,,,0.00,weatherlink.com 1.10,2013-02-09 13:52:00,
2013-02-09 09:07:00,10.3,7.0,30.07,NNW,336,13.0,24.0,87,0.00,,,0.00,weatherlink.com 1.10,2013-02-09 14:07:00,
2013-02-09 09:23:00,10.3,7.0,30.09,NNW,339,11.0,16.0,87,0.00,,,0.00,weatherlink.com 1.10,2013-02-09 14:23:00,
2013-02-09 09:38:00,10.8,7.0,30.10,NW,311,9.0,18.0,86,0.00,,,0.00,weatherlink.com 1.10,2013-02-09 14:38:00,
2013-02-09 09:54:00,11.2,8.0,30.10,NNW,327,10.0,20.0,86,0.00,,,0.00,weatherlink.com 1.10,2013-02-09 14:54:00,
2013-02-09 10:08:00,12.1,9.0,30.10,NNW,331,13.0,24.0,86,0.00,,,0.00,weatherlink.com 1.10,2013-02-09 15:08:00,
2013-02-09 10:23:00,12.5,9.0,30.11,WNW,300,16.0,21.0,86,0.00,,,0.00,weatherlink.com 1.10,2013-02-09 15:23:00,
2013-02-09 10:38:00,13.2,10.0,30.12,NW,320,12.0,23.0,85,0.00,,,0.00,weatherlink.com 1.10,2013-02-09 15:38:00,
2013-02-09 10:54:00,13.9,10.0,30.12,NW,323,11.0,24.0,85,0.00,,,0.00,weatherlink.com 1.10,2013-02-09 15:54:00,
2013-02-09 11:09:00,14.7,10.0,30.13,NW,319,12.0,19.0,83,0.00,,,0.00,weatherlink.com 1.10,2013-02-09 16:09:00,
2013-02-09 11:24:00,15.2,10.0,30.14,NNW,333,11.0,20.0,81,0.00,,,0.00,weatherlink.com 1.10,2013-02-09 16:24:00,
2013-02-09 11:39:00,14.3,9.0,30.14,WNW,298,9.0,25.0,79,0.00,,,0.00,weatherlink.com 1.10,2013-02-09 16:39:00,
2013-02-09 11:54:00,15.2,9.0,30.14,NW,314,12.0,17.0,77,0.00,,,0.00,weatherlink.com 1.10,2013-02-09 16:54:00,
2013-02-09 12:10:00,15.8,9.0,30.14,North,355,9.0,24.0,74,0.00,,,0.00,weatherlink.com 1.10,2013-02-09 17:10:00,
2013-02-09 12:25:00,16.1,9.0,30.14,NNW,341,18.0,23.0,73,0.00,,,0.00,weatherlink.com 1.10,2013-02-09 17:25:00,
2013-02-09 12:40:00,15.9,8.0,30.15,North,5,12.0,27.0,72,0.00,,,0.00,weatherlink.com 1.10,2013-02-09 17:40:00,
2013-02-09 12:55:00,16.6,8.0,30.15,NNW,331,14.0,22.0,69,0.00,,,0.00,weatherlink.com 1.10,2013-02-09 17:55:00,
2013-02-09 13:10:00,16.6,7.0,30.16,NW,322,18.0,21.0,67,0.00,,,0.00,weatherlink.com 1.10,2013-02-09 18:10:00,
2013-02-09 13:25:00,17.1,7.0,30.16,NNW,338,14.0,23.0,64,0.00,,,0.00,weatherlink.com 1.10,2013-02-09 18:25:00,
2013-02-09 13:40:00,17.1,7.0,30.17,NNW,334,13.0,25.0,64,0.00,,,0.00,weatherlink.com 1.10,2013-02-09 18:40:00,
2013-02-09 13:55:00,17.5,7.0,30.18,NW,317,15.0,19.0,64,0.00,,,0.00,weatherlink.com 1.10,2013-02-09 18:55:00,
2013-02-09 14:11:00,17.6,7.0,30.17,NW,305,19.0,21.0,62,0.00,,,0.00,weatherlink.com 1.10,2013-02-09 19:11:00,
2013-02-09 14:26:00,17.5,6.0,30.18,NNE,20,11.0,23.0,61,0.00,,,0.00,weatherlink.com 1.10,2013-02-09 19:26:00,
2013-02-09 14:42:00,17.9,6.0,30.19,NW,307,19.0,20.0,60,0.00,,,0.00,weatherlink.com 1.10,2013-02-09 19:42:00,
2013-02-09 14:56:00,17.0,6.0,30.20,WSW,242,10.0,24.0,63,0.00,,,0.00,weatherlink.com 1.10,2013-02-09 19:56:00,
2013-02-09 15:11:00,17.4,6.0,30.20,NNW,342,15.0,23.0,60,0.00,,,0.00,weatherlink.com 1.10,2013-02-09 20:11:00,
2013-02-09 15:26:00,17.3,6.0,30.20,NW,315,10.0,21.0,62,0.00,,,0.00,weatherlink.com 1.10,2013-02-09 20:26:00,
2013-02-09 15:42:00,17.5,6.0,30.22,NNW,327,14.0,17.0,61,0.00,,,0.00,weatherlink.com 1.10,2013-02-09 20:42:00,
2013-02-09 15:57:00,17.0,6.0,30.23,NW,325,15.0,19.0,61,0.00,,,0.00,weatherlink.com 1.10,2013-02-09 20:57:00,
2013-02-09 16:12:00,16.5,6.0,30.23,North,355,17.0,19.0,63,0.00,,,0.00,weatherlink.com 1.10,2013-02-09 21:12:00,
2013-02-09 16:27:00,15.9,6.0,30.23,NNW,332,11.0,14.0,66,0.00,,,0.00,weatherlink.com 1.10,2013-02-09 21:27:00,
2013-02-09 16:42:00,15.7,6.0,30.24,WNW,293,11.0,16.0,66,0.00,,,0.00,weatherlink.com 1.10,2013-02-09 21:42:00,
2013-02-09 16:57:00,15.3,6.0,30.24,NNW,340,6.0,16.0,66,0.00,,,0.00,weatherlink.com 1.10,2013-02-09 21:57:00,
2013-02-09 17:12:00,14.8,6.0,30.25,WNW,301,14.0,14.0,67,0.00,,,0.00,weatherlink.com 1.10,2013-02-09 22:12:00,
2013-02-09 17:28:00,14.5,5.0,30.26,NW,306,6.0,13.0,66,0.00,,,0.00,weatherlink.com 1.10,2013-02-09 22:28:00,
2013-02-09 17:43:00,14.1,5.0,30.27,NNW,333,7.0,17.0,67,0.00,,,0.00,weatherlink.com 1.10,2013-02-09 22:43:00,
2013-02-09 17:59:00,13.5,5.0,30.28,NW,324,3.0,13.0,68,0.00,,,0.00,weatherlink.com 1.10,2013-02-09 22:59:00,
2013-02-09 18:13:00,13.4,5.0,30.29,NNW,335,10.0,15.0,69,0.00,,,0.00,weatherlink.com 1.10,2013-02-09 23:13:00,
2013-02-09 18:28:00,12.9,5.0,30.30,NW,322,7.0,11.0,70,0.00,,,0.00,weatherlink.com 1.10,2013-02-09 23:28:00,
2013-02-09 18:43:00,12.2,5.0,30.30,NNW,329,9.0,13.0,72,0.00,,,0.00,weatherlink.com 1.10,2013-02-09 23:43:00,
2013-02-09 18:59:00,12.6,5.0,30.30,NW,309,8.0,21.0,72,0.00,,,0.00,weatherlink.com 1.10,2013-02-09 23:59:00,
2013-02-09 19:14:00,12.1,5.0,30.31,North,355,9.0,18.0,74,0.00,,,0.00,weatherlink.com 1.10,2013-02-10 00:14:00,
2013-02-09 19:29:00,11.5,6.0,30.32,WNW,302,15.0,18.0,77,0.00,,,0.00,weatherlink.com 1.10,2013-02-10 00:29:00,
2013-02-09 19:44:00,11.4,6.0,30.32,North,360,11.0,18.0,79,0.00,,,0.00,weatherlink.com 1.10,2013-02-10 00:44:00,
2013-02-09 19:59:00,11.0,6.0,30.33,NNW,342,9.0,17.0,80,0.00,,,0.00,weatherlink.com 1.10,2013-02-10 00:59:00,
2013-02-09 20:15:00,10.9,6.0,30.34,NNW,348,8.0,16.0,81,0.00,,,0.00,weatherlink.com 1.10,2013-02-10 01:15:00,
2013-02-09 20:29:00,10.6,6.0,30.35,NW,325,10.0,19.0,81,0.00,,,0.00,weatherlink.com 1.10,2013-02-10 01:29:00,
2013-02-09 20:45:00,10.7,6.0,30.36,WNW,298,7.0,16.0,82,0.00,,,0.00,weatherlink.com 1.10,2013-02-10 01:45:00,
2013-02-09 21:00:00,10.9,7.0,30.36,NW,311,10.0,15.0,83,0.00,,,0.00,weatherlink.com 1.10,2013-02-10 02:00:00,
2013-02-09 21:16:00,10.9,7.0,30.36,NW,319,9.0,15.0,83,0.00,,,0.00,weatherlink.com 1.10,2013-02-10 02:16:00,
2013-02-09 21:30:00,10.8,7.0,30.37,NW,316,4.0,11.0,84,0.00,,,0.00,weatherlink.com 1.10,2013-02-10 02:30:00,
2013-02-09 21:45:00,11.0,7.0,30.37,NW,306,3.0,12.0,83,0.00,,,0.00,weatherlink.com 1.10,2013-02-10 02:45:00,
2013-02-09 22:00:00,10.8,7.0,30.38,NW,306,4.0,8.0,83,0.00,,,0.00,weatherlink.com 1.10,2013-02-10 03:00:00,
2013-02-09 22:16:00,10.7,7.0,30.38,North,355,5.0,11.0,84,0.00,,,0.00,weatherlink.com 1.10,2013-02-10 03:16:00,
2013-02-09 22:32:00,10.9,7.0,30.38,WNW,302,3.0,10.0,84,0.00,,,0.00,weatherlink.com 1.10,2013-02-10 03:32:00,
2013-02-09 22:47:00,10.6,7.0,30.38,NNW,333,4.0,7.0,85,0.00,,,0.00,weatherlink.com 1.10,2013-02-10 03:47:00,
2013-02-09 23:01:00,10.2,6.0,30.39,NW,315,0.0,3.0,84,0.00,,,0.00,weatherlink.com 1.10,2013-02-10 04:01:00,
2013-02-09 23:16:00,8.7,5.0,30.39,WNW,291,0.0,2.0,84,0.00,,,0.00,weatherlink.com 1.10,2013-02-10 04:16:00,
2013-02-09 23:31:00,7.4,4.0,30.39,WNW,291,2.0,3.0,86,0.00,,,0.00,weatherlink.com 1.10,2013-02-10 04:31:00,
2013-02-09 23:46:00,9.1,6.0,30.39,NW,315,2.0,5.0,88,0.00,,,0.00,weatherlink.com 1.10,2013-02-10 04:46:00,